www.pogodaiklimat.ru

Погода и климат >> Архив погоды >> Россия >> Татарстан >> Мензелинск


ПОГОДА в Мензелинске

  • Прогноз погоды в Мензелинске
  • Монитор погоды в Мензелинске

АРХИВ ПОГОДЫ в Мензелинске

Время (UTC), дата Ветер
(напр.,м/с)
 
Видим.   Явления Облачность Т
(С)
Тd
(С)
f
(%)
Тe
(С)
Тes
(С)
Комфортность P
(гПа)
Po
(гПа)
Тmin
(С)
Tmax
(С)
R
(мм)
R24
(мм)
S
(см)
00 15.09 штиль 0 10 км 8/0
[Ac trans]
+11.1 +5.6 69 +11 +11 1009.9 996.6
03 15.09 СЗ 4 10 км 10/6 600 м
[Sc diur, vesp Ac trans]
+13.7 +9.5 76 +12 +12 1010.0 996.8 +11.0
06 15.09 З 3 10 км слаб. ливневой дождь 10/8 600 м
[Cb cap Ac As]
+12.7 +10.1 84 +11 +11 1010.6 997.4
09 15.09 З 3 10 км слаб. ливневой дождь 10/6 600 м
[Cb cap Ac As]
+13.1 +9.7 80 +12 +13 1010.6 997.4
12 15.09 З 2 10 км {ливн. осадки} 9/4 600 м
[Cu Sc Ac lent Ci sp]
+15.6 +5.6 51 +16 +17 1010.1 997.0
15 15.09 ЮЗ 2 10 км {ливн. осадки} 8/3 600 м
[Cb cap Ac lent]
+10.2 +7.7 84 +9 +9 1010.3 996.9 +15.6 2
18 15.09 ЮЗ 2 10 км {ливн. осадки} 8/0
[Ac As Ci fib]
+7.5 +5.4 87 +5 +5 1009.9 996.4
21 15.09 ЮЗ 2 10 км ясно +5.0 +3.4 89 +2 +2 1009.5 995.9
00 16.09 ЮЗ 2 10 км 5/0
[Ac As Cc]
+4.8 +3.2 89 +2 +2 1008.9 995.3
03 16.09 ЮЗ 3 10 км 6/0
[Ac lent Ci fib]
+4.6 +2.9 89 +1 +1 1008.1 994.5 +3.9 0.3
06 16.09 ЮЗ 5 10 км 8/0
[Ac lent]
+10.7 +6.2 74 +8 +9 1006.7 993.4
09 16.09 ЮЗ 6-10
{11}
10 км слаб. ливневой дождь 10/8 600 м
[Cb cap Ac As]
+11.6 +3.8 59 +9 +9 1005.0 991.8
12 16.09 Ю 4
{13}
10 км слаб. ливневой дождь 10/6 600 м
[Cb cap As op]
+10.7 +5.2 69 +8 +8 1002.5 989.2
15 16.09 ЮЗ 3
{11}
10 км слаб. ливневой дождь 10/10 600 м
[Cb cap]
+9.2 +6.8 85 +7 +7 1000.7 987.4 +12.8 2
18 16.09 ЮЗ 4 10 км {ливн. осадки} 10/10 600 м
[Cb cap]
+9.5 +7.4 87 +7 +7 999.3 986.0
21 16.09 ЮЗ 3 10 км слаб. ливневой дождь 10/10 600 м
[Cb cap]
+10.1 +7.9 86 +8 +8 998.3 985.1
00 17.09 ЮЗ 2 10 км {ливн. осадки} 4/0
[Ci fib]
+8.8 +6.9 88 +7 +7 998.6 985.3
03 17.09 ЮЗ 4 10 км 9/9 600 м
[Sc]
+9.5 +7.3 86 +7 +7 999.3 986.0 +8.0 2
06 17.09 ЮЗ 5 10 км 8/3 600 м
[Sc diur, vesp Ac trans]
+12.8 +8.0 73 +11 +12 999.8 986.7
09 17.09 ЮЗ 6-12
{13}
10 км 10/8 600 м
[Cu hum Ac trans]
+16.1 +6.6 53 +15 +15 999.2 986.2
12 17.09 ЮЗ 6
{14}
10 км 9/9 600 м
[Cu hum]
+16.4 +5.6 49 +15 +15 998.4 985.4
15 17.09 З 7-10
{12}
10 км 8/8 600 м
[Cb cap]
+12.9 +5.5 61 +10 +10 998.9 985.8 +17.6
18 17.09 ЮЗ 2
{11}
10 км в посл. час ливневой дождь 10/5 600 м
[Sc Ac As]
+9.4 +5.6 77 +8 +8 998.7 985.5
21 17.09 ЮЗ 3 10 км 10/4 600 м
[Sc Ac trans Ci fib]
+9.1 +5.4 78 +7 +7 998.6 985.3
00 18.09 З 2 10 км 8/3 600 м
[Sc Ci fib]
+8.8 +4.9 76 +7 +7 998.7 985.4
03 18.09 ЮЗ 3 10 км 4/0
[Ac und Ci fib]
+7.6 +4.5 81 +5 +5 999.7 986.4 +7.4
06 18.09 З 5 10 км 3/1 1000 м
[Cu hum Ci fib]
+13.0 +5.3 59 +11 +13 1000.2 987.0
09 18.09 З 5
{10}
10 км 10/6 1000 м
[Cu med, cong Ci]
+15.1 +3.3 45 +14 +15 1000.6 987.6
12 18.09 З 4 10 км 9/4 1000 м
[Sc Cc]
+14.9 +3.4 46 +14 +15 1000.5 987.5
15 18.09 ЮЗ 2 10 км 10/5 600 м
[Sc diur, vesp Ac trans]
+10.8 +4.0 63 +10 +10 1001.1 987.8 +16.1
18 18.09 ЮЗ 1 10 км {ливн. осадки} 10/5 600 м
[Cb cap Ac trans]
+7.1 +4.8 85 +6 +6 1001.1 987.7
21 18.09 З 1 10 км {ливн. осадки} 10/10 600 м
[Sc diur, vesp]
+8.0 +5.3 83 +7 +7 999.7 986.3
00 19.09 В 2 10 км в посл. час ливневой дождь 10/10 600 м
[Cb cap]
+8.5 +6.2 85 +7 +7 995.5 982.3
03 19.09 В 3 10 км слаб. ливневой дождь 10/10 600 м
[Cb cap]
+8.1 +5.7 85 +5 +5 990.2 977.0 +7.0 3
06 19.09 С 4 4000 м ливневой дождь 10/10 600 м
[Cb cap]
+7.6 +5.4 86 +4 +4 988.1 974.9
09 19.09 С 7-12
{12}
10 км слаб. ливневой дождь 10/10 600 м
[Cb cap]
+9.0 +5.9 81 +5 +5 991.6 978.4
12 19.09 З 6-11
{12}
10 км {ливн. осадки} 9/4 600 м
[Cb cap Ac lent Ci sp]
+12.1 +5.9 66 +10 +10 997.8 984.7
15 19.09 З 4
{13}
10 км {ливн. осадки} 9/9 600 м
[Cb cap]
+9.1 +4.6 73 +6 +6 1002.5 989.2 +12.3 12
18 19.09 З 2 10 км {ливн. осадки} 8/3 600 м
[Sc Ac lent Ci fib]
+6.7 +3.6 81 +5 +5 1005.2 991.7
21 19.09 З 2 10 км 10/8 600 м
[Sc Ac lent]
+6.4 +3.9 84 +4 +4 1006.5 993.0
00 20.09 ЮЗ 2 н/о н/о +5.6 +3.6 87 +3 +3 1008.4 994.8
03 20.09 З 2 10 км в посл. час ливневой дождь 9/9 600 м
[Cb cap]
+6.9 +4.8 86 +5 +5 1009.9 996.4 +5.0
06 20.09 З 4 10 км {ливн. осадки} 10/8 600 м
[Sc Ac As]
+8.9 +4.1 72 +6 +6 1011.9 998.4
09 20.09 СЗ 3 10 км 8/5 600 м
[Sc Ac trans]
+9.8 +2.3 60 +8 +10 1012.6 999.1
12 20.09 З 2 10 км 8/4 600 м
[Cu med, cong Ac trans]
+10.9 +1.6 53 +10 +11 1013.0 999.6
15 20.09 ЮЗ 2 10 км 8/1 600 м
[Sc diur, vesp Ac lent Cc]
+6.7 +3.2 78 +5 +5 1013.5 999.9 +11.2
18 20.09 ЮЗ 2 10 км 4/0
[Ac lent Ci fib]
+5.3 +2.8 84 +3 +3 1013.8 1000.2
21 20.09 Ю 3 10 км 10/8 600 м
[Sc Ac As]
+5.6 +3.2 85 +2 +2 1012.9 999.3
00 21.09 ЮЗ 2 10 км 9/9 600 м
[Sc]
+4.6 +2.6 87 +2 +2 1011.8 998.1
03 21.09 ЮЗ 2 10 км 10/6 600 м
[Sc Ac As]
+5.6 +2.9 83 +3 +3 1010.5 996.9 +3.4
06 21.09 ЮЗ 4 10 км 10/0
[Ac trans]
+9.0 +4.6 74 +6 +7 1009.6 996.1
09 21.09 ЮЗ 5 10 км 8/8 600 м
[Sc diur, vesp]
+10.6 +3.7 62 +8 +9 1008.6 995.2
12 21.09 СЗ 5 10 км 9/9 600 м
[Cu hum]
+9.5 +2.4 61 +7 +7 1007.6 994.2
15 21.09 С 3 10 км 3/3 600 м
[Sc]
+6.3 +0.1 64 +4 +4 1007.5 994.0 +11.2
18 21.09 С 1 10 км ясно +1.9 -1.6 78 0 0 1006.8 993.0
21 21.09 Ю 1 10 км ясно -1.7 -3.5 87 -4 -4 1005.7 991.8

 

Местоположение метеостанции Мензелинск (Татарстан, Россия): широта 55.72 долгота 53.07 высота над уровнем моря 112 м.

В архиве по умолчанию представлена погода в Мензелинске за последнюю неделю. Архивные данные за месяц целиком и за предыдущие месяцы, начиная с января 2011 года, Вы можете получить, выбрав интересующий диапазон дат из раскрывающегося списка и нажав кнопку "Ввод!".


*Определитесь, кто Вы:
робот инопланетянин человек

Внимание! Время в таблицах - всемирное. Для получения местного времени необходимо прибавить поправку, которая равна 3 ч.

Смотрите также архив погоды в соседних городах и на ближайших метеорологических станциях:

Погода в Муслюмово (Татарстан, Россия) (45 км)
Погода в Бегишево (Татарстан, Россия) (63 км)
Погода в Елабуге (Татарстан, Россия) (64 км)
Погода в Бакалах (Башкирия, Россия) (76 км)
Погода в Верхнеяркеево (Башкирия, Россия) (86 км)
Погода в Сарапуле (Удмуртия, Россия) (93 км)
Погода в Азнакаево (Татарстан, Россия) (95 км)
Погода в Можге (Удмуртия, Россия) (96 км)
Погода в Акташе (Татарстан, Россия) (96 км)
Погода в Отарке (Татарстан, Россия) (107 км)

Пояснения к столбцам:

Ветер - указаны скорость ветра в м/с - средняя за 10 мин, порывы в срок и между сроками (в фигурных скобках) и направление, откуда дует ветер: С - северный, СВ - северо-восточный, В - восточный, ЮВ - юго-восточный, Ю - южный, ЮЗ - юго-западный, З - западный, СЗ - северо-западный.
Видимость - горизонтальная дальность видимости в метрах или километрах. При видимости от 1 до 10 км при отсутствии осадков обычно наблюдается дымка, при ухудшении видимости до 1 км и менее - туман. В сухую погоду видимость может ухудшаться дымом, пылью или мглою.
Явления - указаны атмосферные явления, наблюдавшиеся в срок или в последний час перед сроком; фигурными скобками обозначены явления, наблюдавшиеся между сроками (за 1-3 часа до срока); квадратными скобками обозначены град или гололедные отложения с указанием их диаметра в мм.
Облачность - указаны через наклонную черту общая и нижняя облачность в баллах и высота нижней границы облаков в метрах; квадратными скобками обозначены формы облаков: Ci - перистые, Cs - перисто-слоистые, Cc - перисто-кучевые, Ac - высококучевые, As - высокослоистые, Sc - слоисто-кучевые, Ns - слоисто-дождевые, Cu - кучевые, Cb - кучево-дождевые. Подробнее классификацию облаков см. в Атласе облаков (PDF).
T - Температура воздуха - температура, измеренная на высоте 2 м над землей.
Td - Температура точки росы - температура, при понижении до которой содержащийся в воздухе водяной пар достигнет насыщения.
f - Относительная влажность воздуха - влажноcть воздуха, измеренная на высоте 2 м над землей.
Te - Эффективная температура - температура, которую ощущает одетый по сезону человек в тени. Характеристика душности погоды. При расчете учитывается влияние влажности воздуха и скорости ветра на теплоощущения человека.
Tes - Эффективная температура на солнце - температура, которую ощущает человек, с поправкой на солнечный нагрев. Характеристика знойности погоды. Зависит от высоты солнца над горизонтом, облачности и скорости ветра. Ночью, в пасмурную погоду, а также при ветре 12 м/с и более поправка равна нулю.
P - Атмосферное давление - приведенное к уровню моря атмосферное давление.
Po - Атмосферное давление - измеренное на уровне метеостанции атмосферное давление.
Tmin - Минимальная температура - минимум температуры воздуха на высоте 2 м над землей.
Tmax - Максимальная температура - максимум температуры воздуха на высоте 2 м над землей.
R - Количество осадков - Количество выпавших осадков за период времени, мм. При наведении курсора мыши на число - период времени, за который выпало указанное количество осадков.
R24 - Количество осадков - Количество выпавших осадков за 24 часа, мм.
S - Снежный покров - Высота снежного покрова, см. При наведении курсора мыши на число - состояние снежного покрова и степень покрытия местности в баллах.